{"data":{"norad_id":28369,"epoch":"2026-05-24T23:39:59.205024Z","epoch_age_seconds":76171,"freshness":"FRESH","line1":"1 28369U 04025D   26144.98610191  .00000304  00000+0  80724-4 0  9992","line2":"2 28369  98.5775 154.4918 0033432  94.5172 265.9844 14.55451521160756","mean_motion":14.55451521,"eccentricity":0.0033432,"inclination_deg":98.5775,"raan_deg":154.4918,"arg_perigee_deg":94.5172,"mean_anomaly_deg":265.9844,"bstar":8.0724e-5,"rev_number":16075,"period_min":98.938369243011,"perigee_km":684.20881371056,"apogee_km":731.58888380971,"semimajor_km":7086.0358487601,"source":"CELESTRAK","updated_at":"2026-05-25T13:37:55.058953Z"}}